SL-16 DEB, 22375

Orbit data source: Space-Track

SL-16 DEB, 22375 is space debris in LEO originally from a launch on Fri, 25 Dec 1992 UTC launched from the Tyuratam Missile And Space Complex (TTMTR). Debris objects in space refer to the collection of defunct objects orbiting the Earth. Examples of debris include non-operational satellites, rocket bodies, and fragments generated from explosions, collisions, or faulty payload assembly.

Loading next visibility...
Identifier
22375, 1992-093BQ
Orbit
LEO
Country
Flag of CISCIS
Related business
Manufacturer
Unknown
Mission
Spacecraft
Bus & Motor
Unknown
Mass
Unknown
Launch date (UTC)
1992-12-25 (33 years ago)
Launch vehicle
Unknown
Launch site
Tyuratam Missile And Space Complex (TTMTR)
Object type
Payload
Rocket body
Debris
Shape & HBR
Unknown shape, 0.2 m
Radar Cross Section
Medium (>0.1 m² and <1 m²)

Expand to show TLE details & history
Last TLE update: 1 day ago

TLE from 1 day ago
0 SL-16 DEB
1 22375U 92093BQ  25305.63519069  .00000191  00000-0  15264-3 0  9998
2 22375  70.8153 257.2007 0088367  22.0770 164.3304 14.01480414677185
Epoch: 2025-11-01T15:14Z
TLE epoch observation values (Epoch: 2025-11-01T15:14:40.475Z)
Latitude
-6.44763°
Longitude
169.61136°
Altitude
953.99 km
Speed
7.343 km/s
True Right ascension
05h 17m 46s
True Declination
-6° 24' 37"
Sunlit
Object was in full shadow at epoch
Visualization orbit readout
Latitude
Unknown
Longitude
Unknown
Altitude
Unknown
Speed
Unknown
Apparent Right ascension
Unknown
Apparent Declination
Unknown
Sunlit
N/A
Visualization observer readout
Local Sidereal Time
12:18:14
Azimuth
Unknown
Elevation
Unknown
Doppler factor
Unknown
Orbital elements
Apogee altitude
950.826 km
Perigee altitude
822.433 km
Semi-major axis
7,264.766 km
Eccentricity
0.00884
Inclination
70.8153°
RAAN
257.2007°
Arg. of periapsis
22.077°
True anomaly
164.60102°
Mean anomaly
164.3304°
Eccentric anomaly
164.46599°
Mean motion
3.50518 °/min
Orbital period
102.71 mins
BSTAR
0.00015264
Loading maneuver chart data...
Computing Atmospheric mass density...
Loading historical data...
Loading historical data...
Loading historical data...
Loading historical data...
Loading historical data...
Loading historical data...
Loading historical data...

Documentation

Showing up to 5 results
|